Location: Bacharowice
(49.9333°N, 19.5833°E)
Time: 23:45:11
(UTC+00:00)

Cosmos 1633 Rocket - Pass Details

Date: 11 May 2021
Orbit: 608 x 623 km, 82.5° (Epoch: 24 June)

Event Time Altitude Azimuth Distance (km) Brightness Sun altitude
Rises 18:54:57 0° 353° (N) 2,902 7.3 -6.1°
Reaches altitude 10° 18:57:14 10° 358° (N) 1,994 6.3 -6.4°
Maximum altitude 19:01:34 54° 76° (ENE) 754 3.3 -6.9°
Drops below altitude 10° 19:05:53 10° 155° (SSE) 1,986 5.1 -7.5°
Enters shadow 19:06:35 - 157° (SSE) 2,259 5.4 -7.6°
